Regional Weather Roundup
Issued by NWS Northern Indiana

Home | Current Version | Previous Version | Text Only | Print | Product List | Glossary On
Versions: 1 2 3 4 5 6 7 8 9 10 11 12 13 14 15 16 17 18 19 20 21 22 23 24 25 26 27 28 29 30 31 32 33 34 35 36 37 38 39 40 41 42 43 44 45 46 47 48 49 50
825
ASUS43 KIWX 301710
RWRIWX

KIWX WEATHER ROUNDUP
NATIONAL WEATHER SERVICE NORTHERN INDIANA
100 PM EDT SAT APR 30 2016

NOTE: "FAIR" INDICATES FEW OR NO CLOUDS BELOW 12,000 FEET WITH NO
SIGNIFICANT WEATHER AND/OR OBSTRUCTIONS TO VISIBILITY.

* THESE STATIONS ARE NOT UNDER NWS QUALITY CONTROL. THEY ALSO MAY NOT
  REPORT WEATHER SUCH AS PRECIPITATION OR FOG.

INZ001>027-301800-
NORTHERN INDIANA

CITY           SKY/WX    TMP DP  RH WIND       PRES   REMARKS
GARY*          LGT RAIN  48  48 100 E14       30.02F
VALPARAISO     LGT RAIN  46  43  89 E17       30.01F
MICHIGAN CITY* LGT RAIN  45  41  87 E7        30.03F
LAPORTE*       LGT RAIN  47  45  92 E13       30.03F
KNOX*          CLOUDY    45  41  87 E12       30.01F
SOUTH BEND     LGT RAIN  47  41  80 E13       30.06F
ELKHART*       LGT RAIN  48  46  93 E10       30.07S
GOSHEN         LGT RAIN  47  41  80 E12       30.06F
MONTICELLO*    LGT RAIN  47  44  88 E9        29.97F
LOGANSPORT*    LGT RAIN  46  45  93 E10       30.01F
ROCHESTER*     DRIZZLE   48  46  93 E13       30.02F
WARSAW*        LGT RAIN  45  41  87 E9        30.05F
ANGOLA*        CLOUDY    48  39  71 E9        30.09S
FORT WAYNE     LGT RAIN  47  43  86 E16       30.07F
HUNTINGTON*    DRIZZLE  N/A N/A N/A E12       30.04F
PERU/GRISSOM   LGT RAIN  47  47  99 E15       29.98F FOG
MARION*        LGT RAIN  47  46  94 E14       30.01F

$$
INZ028>050-301800-
CENTRAL INDIANA

CITY           SKY/WX    TMP DP  RH WIND       PRES   REMARKS
LAFAYETTE      LGT RAIN  50  48  93 E15       29.94F FOG
KOKOMO*        CLOUDY    48  45  87 E15       30.00F
MUNCIE*        LGT RAIN  51  47  86 E12       30.00F FOG
INDIANAPOLIS   LGT RAIN  53  50  89 E9        29.94F FOG

$$
MIZ043>046-050>051-056>058-064>065-071>073-077>080-301800-
SOUTHWEST LOWER MICHIGAN

CITY           SKY/WX    TMP DP  RH WIND       PRES   REMARKS
BATTLE CREEK   CLOUDY    53  31  42 SE9       30.10S
BENTON HARBOR  LGT RAIN  50  41  71 E10       30.07S
COLDWATER*     LGT RAIN  51  38  61 E8        30.08F
HILLSDALE*     CLOUDY    51  37  59 E8        30.09F
HOLLAND        CLOUDY    53  37  54 E13       30.10F
GRAND RAPIDS   CLOUDY    53  35  50 E13       30.11S
KALAMAZOO      LGT RAIN  53  34  48 E10       30.09F
STURGIS*       LGT RAIN  49  40  73 E6        30.07S
THREE RIVERS*  LGT RAIN  50  39  66 E6        30.09S

$$
OHZ001>008-015>018-024>025-301800-
NORTHWEST OHIO

CITY           SKY/WX    TMP DP  RH WIND       PRES   REMARKS
WAUSEON*         N/A     54 N/A N/A E8        30.09F
DEFIANCE       LGT RAIN  52  39  61 E9        30.09F
FINDLAY        LGT RAIN  53  42  66 E9        30.07S
TOLEDO EXPRESS PTSUNNY   52  38  58 E10       30.10R
TOLEDO METCALF PTSUNNY   51  38  60 E12       30.12R
LIMA           LGT RAIN  48  45  89 E5        30.08R FOG

$$
AND FOR LAKE MICHIGAN COASTAL AND OPEN LAKE BUOY OBSERVATIONS

STATION/POSITION TEMP    WIND        PRES    VSBY  WAVE
                 AIR SEA DIR/SP/G                  HT/PER
                 (F)     (DEG/KT/KT) (MB)    (MI)  (FT/S)
CALUMET HARBOR    46      80/ 12/ 18 1016.5F
MICHIGAN CITY     45      70/ 10/ 13   N/A
BURNS HARBOR      46      90/ 12/ 18 1016.6F
SAINT JOSEPH      49      CALM  /  6 1018.3F
SOUTH LAKE BUOY   43 40   70/ 12/ 14 1018.5F         1/ 3
4 MI NW BRIDGMAN  48 47                N/A           1

$$
&&




USA.gov is the U.S. government's official web portal to all federal, state and local government web resources and services.